Home   Weather   Ojinaga   Past weeks

Flag for Mexico Past Weather in Ojinaga, Chihuahua, Mexico — Yesterday and Last 2 Weeks

Now
55 °F

Clear.


Feels Like: 54 °F
Forecast: 57 / 85 °F
Wind: 6 mph from West

Location: Alpine-Casparis Municipal Airport

Current Time: Sep 28, 2016 at 1:02:03 AM

Latest Report: Sep 28, 2016 at 12:15 AM


Visibility: 10 mi

Pressure: 30.27 "Hg (27.55 "Hg at 788m altitude)

Humidity: 94%

Dew Point: 54 °F

Location of OjinagaLocation

Past Weather in Ojinaga — Graph

°F

Ojinaga Temperature Yesterday

Maximum temperature yesterday: 69 °F (at 4:55 PM)
Minimum temperature yesterday: 48 °F (at 6:35 AM)
Average temperature yesterday: 57 °F

High & Low Weather Summary for the Past Weeks

 TemperatureHumidityPressure
High88 °F (Sep 19, 11:55 AM)99% (Sep 26, 1:35 AM)30.44 "Hg (Sep 26, 1:35 AM)
Low48 °F (Sep 27, 6:35 AM)28% (Sep 20, 3:15 PM)30.04 "Hg (Sep 23, 4:15 PM)
Average70 °F69%30.21 "Hg
* Reported Sep 12 11:15 PM — Sep 27 11:55 PM, Ojinaga, Weather by CustomWeather, © 2016

Note: Actual official high and low records may vary slightly from our data, if they occured in-between our weather recording intervals... More about our weather records

Advertising

Ojinaga Weather History for the Previous 24 Hours

Scroll right to see more
 ConditionsComfort  
Time TempWeatherWind HumidityBarometerVisibility
11:55 PM
Tue, Sep 27
55 °FClear.3 mph94%30.28 "Hg10 mi
11:35 PM55 °FClear.No wind94%30.28 "Hg10 mi
11:15 PM55 °FClear.5 mph95%30.28 "Hg10 mi
10:55 PM55 °FClear.3 mph94%30.28 "Hg10 mi
10:35 PM56 °FClear.5 mph93%30.28 "Hg10 mi
10:15 PM57 °FClear.No wind92%30.28 "Hg10 mi
9:55 PM57 °FClear.No wind93%30.28 "Hg10 mi
9:35 PM58 °FClear.3 mph90%30.28 "Hg10 mi
9:15 PM60 °FClear.No wind87%30.27 "Hg10 mi
8:55 PM59 °FClear.No wind90%30.27 "Hg10 mi
8:15 PM62 °FClear.No wind79%30.26 "Hg10 mi
7:55 PM61 °FClear.No wind84%30.25 "Hg10 mi
7:35 PM62 °FClear.3 mph84%30.24 "Hg10 mi
7:15 PM64 °FClear.3 mph82%30.25 "Hg10 mi
6:55 PM64 °FClear.3 mph78%30.24 "Hg10 mi
6:15 PM67 °FOvercast.3 mph67%30.24 "Hg10 mi
5:55 PM68 °FOvercast.No wind62%30.24 "Hg10 mi
5:35 PM68 °FOvercast.No wind63%30.24 "Hg10 mi
5:15 PM68 °FMore clouds than sun.3 mph62%30.24 "Hg10 mi
4:55 PM69 °FMore clouds than sun.No wind61%30.24 "Hg10 mi
4:35 PM68 °FMore clouds than sun.No wind62%30.24 "Hg10 mi
4:15 PM67 °FMore clouds than sun.No wind62%30.24 "Hg10 mi
3:55 PM68 °FMore clouds than sun.No wind61%30.24 "Hg10 mi
3:35 PM67 °FMostly cloudy.No wind62%30.24 "Hg10 mi
3:15 PM68 °FOvercast.No wind62%30.25 "Hg10 mi
2:55 PM67 °FOvercast.No wind62%30.25 "Hg10 mi
2:35 PM67 °FMore clouds than sun.No wind62%30.26 "Hg10 mi
2:15 PM67 °FMostly cloudy.3 mph62%30.27 "Hg10 mi
1:55 PM67 °FMore clouds than sun.No wind62%30.27 "Hg10 mi
1:35 PM66 °FMostly cloudy.5 mph63%30.28 "Hg10 mi
1:15 PM65 °FBroken clouds.3 mph62%30.29 "Hg10 mi
12:55 PM64 °FScattered clouds.6 mph63%30.30 "Hg10 mi
12:35 PM63 °FPartly sunny.No wind63%30.31 "Hg10 mi
12:15 PM61 °FOvercast.No wind66%30.32 "Hg10 mi
11:55 AM60 °FOvercast.No wind67%30.33 "Hg10 mi
11:35 AM58 °FMostly cloudy.No wind69%30.34 "Hg10 mi
11:15 AM58 °FOvercast.No wind70%30.34 "Hg10 mi
10:55 AM57 °FOvercast.No wind70%30.35 "Hg10 mi
10:35 AM56 °FMore clouds than sun.No wind70%30.36 "Hg10 mi
10:15 AM54 °FOvercast.No wind72%30.35 "Hg10 mi
9:55 AM54 °FCool.No wind74%30.35 "Hg10 mi
9:35 AM52 °FOvercast.No wind77%30.35 "Hg10 mi
9:15 AM52 °FOvercast.No wind78%30.36 "Hg10 mi
8:55 AM52 °FOvercast.No wind82%30.35 "Hg10 mi
8:35 AM51 °FMore clouds than sun.No wind84%30.35 "Hg10 mi
8:15 AM50 °FOvercast.No wind90%30.35 "Hg10 mi
7:55 AM49 °FPartly sunny.No wind92%30.34 "Hg10 mi
7:15 AM48 °FScattered clouds.No wind96%30.34 "Hg10 mi
6:55 AM48 °FScattered clouds.No wind95%30.34 "Hg10 mi
6:35 AM48 °FOvercast.No wind96%30.34 "Hg10 mi
6:15 AM49 °FPassing clouds.No wind97%30.34 "Hg10 mi
5:55 AM49 °FPassing clouds.No wind97%30.34 "Hg10 mi
5:35 AM49 °FPassing clouds.No wind97%30.33 "Hg10 mi
5:15 AM49 °FPassing clouds.No wind98%30.32 "Hg10 mi
4:55 AM49 °FMostly cloudy.No wind99%30.34 "Hg10 mi
4:35 AM49 °FMostly cloudy.No wind99%30.34 "Hg10 mi
4:15 AM49 °FOvercast.No wind98%30.35 "Hg10 mi
3:55 AM49 °FOvercast.3 mph98%30.34 "Hg10 mi
3:35 AM49 °FMostly cloudy.3 mph99%30.35 "Hg7 mi
3:15 AM49 °FMostly cloudy.3 mph99%30.35 "Hg7 mi
2:55 AM49 °FMostly cloudy.3 mph99%30.36 "Hg10 mi
2:35 AM49 °FMostly cloudy.5 mph99%30.36 "Hg10 mi
2:15 AM49 °FOvercast.3 mph98%30.37 "Hg10 mi
1:55 AM49 °FMostly cloudy.5 mph98%30.37 "Hg10 mi
1:35 AM49 °FOvercast.No wind99%30.38 "Hg10 mi
1:15 AM49 °FOvercast.No wind99%30.38 "Hg10 mi
Weather by CustomWeather, © 2016

See weather overviewHow to use our weather pages